[[{"header":{"parameterUnit":"m.s-1","parameterCategory":1,"la1":30.2991,"la2":30.254,"lo1":-89.0895,"lo2":-89.0444,"dx":0.0017,"dy":0.0017,"nx":28,"ny":28,"refTime":"2022-11-26T09:00:00:Z","depth":0,"parameterNumber":2,"parameterNumberName":"U-component_of_WINDS"},"data":[0,0,0,0,0,0,0,0,0,0,0,0,0,0,0,0,0,0,0,0,0,0,0,0,0,0,0,0,0,0,0,0,0,0,0,0,0,0,0,0,0,0,0,0,0,0,0,0,0,0,0,0,0,0,0,0,0,0,-4.3832,-4.3832,0,-4.3856,-4.3856,-4.3857,-4.3851,-4.385,-4.385,-4.3849,-4.3877,-4.3878,-4.3879,0,0,0,0,0,0,0,0,0,0,0,0,0,-4.3785,-4.3786,-4.3832,-4.3832,-4.3833,-4.3856,-4.3856,-4.3857,-4.3851,-4.385,-4.385,-4.3849,-4.3876,-4.3878,-4.3879,0,0,0,0,0,0,0,0,0,0,0,0,0,-4.3807,-4.3786,-4.3832,-4.3832,-4.3833,-4.3856,-4.3856,-4.3857,-4.3851,-4.385,-4.3849,-4.3849,-4.3876,-4.3877,-4.3879,-4.3904,0,0,-4.3885,-4.3885,0,0,0,0,0,0,0,0,-4.3806,-4.3809,-4.3832,-4.3832,-4.3833,-4.385,-4.385,-4.3873,-4.3851,-4.3844,-4.3849,-4.3848,-4.3868,-4.3871,-4.3877,-4.3906,-4.3907,-4.3885,-4.3886,-4.3887,-4.3887,0,0,0,0,0,0,0,-4.3804,-4.3808,-4.3842,-4.3833,-4.3833,-4.3833,-4.3835,-4.3854,-4.386,-4.3845,-4.3844,-4.3847,-4.3868,-4.3875,-4.3877,-4.3907,-4.3885,-4.3886,-4.3887,-4.3888,-4.3959,-4.396,0,0,0,0,0,0,-4.3802,-4.3806,-4.3841,-4.3842,-4.3817,-4.3834,-4.3837,-4.3845,-4.386,-4.3861,-4.3848,-4.3847,-4.3873,-4.3875,-4.3878,-4.3908,-4.3887,-4.3888,-4.3889,-4.3958,-4.3959,-4.396,0,0,0,0,0,0,-4.3801,-4.3805,-4.384,-4.3824,-4.3829,-4.3836,-4.3845,-4.3846,-4.3852,-4.3862,-4.3863,-4.3853,-4.3872,-4.3876,-4.3898,-4.3909,-4.3889,-4.3891,-4.3957,-4.3958,-4.396,-4.3969,0,0,0,0,0,0,-4.38,-4.3805,-4.3813,-4.3825,-4.383,-4.3858,-4.3846,-4.3847,-4.3855,-4.3854,-4.3867,-4.3869,-4.3872,-4.3895,-4.39,-4.3911,-4.3892,-4.3956,-4.3958,-4.3959,-4.3967,-4.397,-4.3973,0,0,0,0,0,-4.3798,-4.3816,-4.3814,-4.3818,-4.384,-4.3858,-4.3861,-4.3863,-4.3856,-4.3865,-4.3872,-4.3869,-4.3908,-4.3898,-4.3902,-4.3915,-4.3955,-4.3957,-4.3959,-4.3966,-4.397,-4.3973,0,0,0,0,0,0,-4.3806,-4.3817,-4.3815,-4.3837,-4.3847,-4.3857,-4.3869,-4.3867,-4.388,-4.3878,-4.3882,-4.3885,-4.3907,-4.3914,-4.3902,-4.3941,-4.3931,-4.3934,-4.3935,-4.3938,-4.394,-4.3937,-4.3893,0,0,0,0,0,-4.381,-4.3823,-4.3832,-4.3851,-4.3856,-4.3862,-4.387,-4.387,-4.3881,-4.3886,-4.3894,-4.3905,-4.392,-4.393,-4.3944,-4.397,-4.3972,-4.3981,-4.3983,-4.3985,-4.3987,-4.4001,-4.4005,-4.3966,-4.3966,-4.3966,0,0,-4.3819,-4.3827,-4.3835,-4.3852,-4.386,-4.3874,-4.3865,-4.388,-4.3891,-4.3888,-4.3908,-4.3916,-4.3929,-4.3952,-4.3963,-4.3959,-4.3999,-4.3988,-4.3989,-4.399,-4.4003,-4.4007,-4.401,-4.3967,-4.3967,-4.3967,0,0,-4.3842,-4.3849,-4.3865,-4.3873,-4.3885,-4.3889,-4.3893,-4.3904,-4.3908,-4.3929,-4.3927,-4.3941,-4.3967,-4.3976,-4.3985,-4.4013,-4.4011,-4.4018,-4.4031,-4.4044,-4.4047,-4.405,-4.406,-4.4063,-4.4021,-4.4021,-4.4021,0,-4.3851,-4.3871,-4.3873,-4.3888,-4.3897,-4.3895,-4.3911,-4.392,-4.3936,-4.3942,-4.3937,-4.397,-4.3979,-4.4004,-4.4011,-4.4019,-4.4024,-4.4015,-4.4047,-4.4049,-4.4052,-4.4061,-4.4065,-4.4021,-4.4021,-4.4021,-4.4021,0,-4.3882,-4.3896,-4.3908,-4.3922,-4.3932,-4.3948,-4.3954,-4.3964,-4.3965,-4.397,-4.3992,-4.4003,-4.4019,-4.4026,-4.4028,-4.4053,-4.4049,-4.4046,-4.4035,-4.4056,-4.4065,-4.4068,-4.4022,-4.4022,-4.4022,-4.4022,0,0,-4.3908,-4.3925,-4.3929,-4.3935,-4.3949,-4.3961,-4.3978,-4.3993,-4.4001,-4.4014,-4.4028,-4.4051,-4.4048,-4.4057,-4.406,-4.4072,-4.4094,-4.4067,-4.4067,-4.407,-4.4122,-4.4123,-4.4127,-4.4093,-4.4094,-4.4095,-4.412,0,-4.3931,-4.3958,-4.3962,-4.3986,-4.4,-4.3999,-4.4014,-4.4025,-4.4031,-4.4044,-4.4052,-4.4067,-4.4062,-4.4068,-4.408,-4.4088,-4.4104,-4.4087,-4.4107,-4.4107,-4.4101,-4.4132,-4.4133,-4.4156,-4.4124,-4.4124,-4.4125,0,-4.396,-4.3972,-4.3998,-4.401,-4.4016,-4.4029,-4.4044,-4.4057,-4.407,-4.4073,-4.4085,-4.4086,-4.4105,-4.4096,-4.4122,-4.4111,-4.412,-4.4125,-4.4127,-4.4127,-4.4115,-4.4131,-4.4164,-4.4167,-4.413,-4.413,-4.4129,0,-4.3975,-4.3998,-4.4016,-4.4023,-4.4038,-4.4047,-4.4054,-4.4066,-4.4076,-4.409,-4.4096,-4.4113,-4.4121,-4.4135,-4.4141,-4.4134,-4.4167,-4.4159,-4.4171,-4.4171,-4.4176,-4.4175,-4.4209,-4.4185,-4.4185,-4.4185,-4.4185,0,-4.3999,-4.4015,-4.4023,-4.4034,-4.4052,-4.4057,-4.4075,-4.4083,-4.4094,-4.4107,-4.411,-4.4123,-4.4131,-4.4146,-4.4152,-4.4173,-4.4177,-4.4181,-4.4182,-4.418,-4.4179,-4.4184,-4.4182,-4.4186,-4.4186,-4.4185,-4.4185,0,-4.4017,-4.4024,-4.4043,-4.4057,-4.4061,-4.4073,-4.4085,-4.4097,-4.4103,-4.412,-4.4125,-4.4136,-4.4153,-4.4162,-4.4184,-4.4189,-4.4212,-4.4213,-4.4206,-4.4206,-4.4217,-4.4216,-4.4254,-4.4259,-4.4233,-4.4234,-4.4234,0,-4.4031,-4.4043,-4.4057,-4.4066,-4.4073,-4.4087,-4.4096,-4.4103,-4.4113,-4.4129,-4.4139,-4.4157,-4.4171,-4.4199,-4.421,-4.4227,-4.4228,-4.424,-4.423,-4.4228,-4.4227,-4.4225,-4.4226,-4.4241,-4.4241,-4.4242,-4.4242,0,-4.4054,-4.4057,-4.407,-4.4084,-4.4095,-4.4107,-4.4119,-4.4126,-4.4135,-4.4147,-4.4164,-4.4175,-4.4197,-4.4215,-4.4233,-4.4243,-4.4244,-4.4245,-4.4249,-4.4245,-4.4241,-4.4242,-4.4209,-4.4244,-4.4244,-4.4243,-4.4243,-4.4243,-4.407,-4.408,-4.4092,-4.4106,-4.4116,-4.4127,-4.4138,-4.4147,-4.4161,-4.4178,-4.4183,-4.4201,-4.4216,-4.424,-4.425,-4.4266,-4.4263,-4.4269,-4.427,-4.427,-4.427,-4.424,-4.427,-4.427,-4.427,-4.427,-4.427,0,-4.4092,-4.41,-4.4113,-4.4129,-4.4141,-4.4141,-4.4155,-4.4165,-4.418,-4.4193,-4.4207,-4.4228,-4.4245,-4.4258,-4.4276,-4.4286,-4.4288,-4.4291,-4.4289,-4.4291,-4.4272,-4.4266,-4.429,-4.429,-4.429,-4.429,-4.4289,-4.4289,-4.4105,-4.4122,-4.4127,-4.415,-4.4158,-4.4175,-4.4182,-4.4193,-4.4204,-4.4226,-4.424,-4.4248,-4.4261,-4.4281,-4.4297,-4.4301,-4.4307,-4.431,-4.4314,-4.4295,-4.4293,-4.429,-4.4285,-4.4312,-4.4312,-4.4331,-4.4331,-4.4332]},{"header":{"parameterUnit":"m.s-1","parameterCategory":1,"la1":30.2991,"la2":30.254,"lo1":-89.0895,"lo2":-89.0444,"dx":0.0017,"dy":0.0017,"nx":28,"ny":28,"refTime":"2022-11-26T09:00:00:Z","depth":0,"parameterNumber":3,"parameterNumberName":"V-component_of_WINDS"},"data":[0,0,0,0,0,0,0,0,0,0,0,0,0,0,0,0,0,0,0,0,0,0,0,0,0,0,0,0,0,0,0,0,0,0,0,0,0,0,0,0,0,0,0,0,0,0,0,0,0,0,0,0,0,0,0,0,0,0,3.7758,3.7758,0,3.7705,3.7704,3.7704,3.7661,3.766,3.766,3.7659,3.76,3.7599,3.7598,0,0,0,0,0,0,0,0,0,0,0,0,0,3.7821,3.782,3.7759,3.7758,3.7757,3.7705,3.7704,3.7704,3.7661,3.766,3.766,3.7659,3.76,3.7599,3.7598,0,0,0,0,0,0,0,0,0,0,0,0,0,3.7784,3.782,3.7759,3.773,3.7727,3.7705,3.7704,3.7703,3.7661,3.766,3.766,3.7659,3.7601,3.7599,3.7597,3.7599,0,0,3.7592,3.7591,0,0,0,0,0,0,0,0,3.7786,3.7781,3.7735,3.7732,3.7728,3.7689,3.7705,3.7668,3.7661,3.7686,3.7659,3.7659,3.763,3.7626,3.7617,3.7596,3.7594,3.7592,3.7591,3.759,3.759,0,0,0,0,0,0,0,3.7788,3.7783,3.7737,3.7734,3.773,3.7719,3.7712,3.7698,3.7662,3.7683,3.768,3.7675,3.7628,3.7619,3.7615,3.7593,3.7592,3.759,3.7589,3.7589,3.7573,3.7574,0,0,0,0,0,0,3.7796,3.7786,3.7739,3.7736,3.7756,3.7718,3.7711,3.7702,3.7662,3.7655,3.7675,3.7673,3.7622,3.7617,3.7613,3.7614,3.759,3.7588,3.7587,3.7573,3.7574,3.7574,0,0,0,0,0,0,3.7797,3.7792,3.7741,3.776,3.7752,3.7718,3.7708,3.7701,3.7692,3.7656,3.7649,3.7673,3.7621,3.7615,3.7604,3.7611,3.7588,3.7586,3.7572,3.7573,3.7574,3.7614,0,0,0,0,0,0,3.7799,3.7793,3.7794,3.776,3.7752,3.7734,3.7708,3.7701,3.769,3.7686,3.7651,3.7645,3.762,3.7607,3.7602,3.7608,3.7585,3.7571,3.7572,3.7574,3.7612,3.7616,3.762,0,0,0,0,0,3.7802,3.7806,3.7794,3.7788,3.7752,3.7734,3.7729,3.7702,3.769,3.7691,3.7668,3.7646,3.7611,3.7606,3.76,3.7606,3.7571,3.7572,3.7574,3.761,3.7616,3.762,0,0,0,0,0,0,3.7839,3.7801,3.7787,3.778,3.7761,3.7727,3.7726,3.7708,3.769,3.7687,3.7653,3.7646,3.7638,3.7621,3.7615,3.7606,3.7588,3.7589,3.7618,3.7623,3.7627,3.7631,3.7583,0,0,0,0,0,3.7846,3.7836,3.7803,3.78,3.7792,3.7761,3.7752,3.7733,3.7711,3.7702,3.7678,3.7656,3.7641,3.7631,3.7614,3.761,3.7602,3.7611,3.7615,3.7619,3.7619,3.7617,3.7621,3.7579,3.7579,3.7579,0,0,3.7861,3.7839,3.7834,3.7807,3.779,3.778,3.7754,3.7743,3.7735,3.77,3.7688,3.767,3.7644,3.7636,3.7632,3.7622,3.7629,3.7621,3.7624,3.7622,3.7619,3.7623,3.7627,3.758,3.758,3.758,0,0,3.7883,3.7866,3.7862,3.7847,3.7822,3.7802,3.7801,3.777,3.7758,3.7746,3.772,3.7709,3.7682,3.7665,3.7653,3.7673,3.7652,3.7668,3.7689,3.7687,3.7691,3.7693,3.7701,3.7704,3.7669,3.7669,3.7669,0,3.7905,3.7889,3.7862,3.7855,3.7844,3.7814,3.781,3.7795,3.7766,3.7759,3.7748,3.7716,3.7696,3.7685,3.769,3.7681,3.7679,3.7671,3.7692,3.7695,3.7697,3.7704,3.7707,3.7671,3.7671,3.767,3.767,0,3.7917,3.7907,3.7907,3.7882,3.7871,3.7865,3.7837,3.7829,3.7812,3.7794,3.7783,3.7758,3.7737,3.7733,3.7715,3.772,3.7715,3.7699,3.768,3.7704,3.771,3.7712,3.7674,3.7673,3.7673,3.7672,0,0,3.7959,3.7921,3.7922,3.7911,3.7883,3.7874,3.7867,3.7848,3.7843,3.7824,3.7818,3.7797,3.7783,3.777,3.775,3.7749,3.7767,3.7733,3.7732,3.774,3.7772,3.7784,3.7788,3.7754,3.7754,3.7755,3.7774,0,3.7977,3.7964,3.7942,3.7936,3.7927,3.79,3.7894,3.7876,3.7859,3.7848,3.7828,3.7815,3.7797,3.7789,3.7787,3.7765,3.7773,3.7763,3.7747,3.7747,3.7754,3.7791,3.7803,3.7823,3.7776,3.7777,3.7777,0,3.7995,3.7981,3.7975,3.795,3.7945,3.7941,3.7923,3.7913,3.7892,3.788,3.7867,3.7846,3.7837,3.7821,3.7809,3.7803,3.7795,3.7784,3.7784,3.7781,3.7763,3.7789,3.7828,3.7831,3.778,3.778,3.778,0,3.8027,3.8006,3.8001,3.7992,3.7962,3.796,3.7947,3.7926,3.7917,3.7901,3.7895,3.7878,3.7868,3.7855,3.7831,3.7821,3.7822,3.7803,3.7811,3.7812,3.7812,3.7812,3.7851,3.7807,3.7807,3.7807,3.7807,0,3.805,3.8047,3.8015,3.8012,3.8009,3.7983,3.798,3.7965,3.7947,3.794,3.7915,3.7908,3.7876,3.7866,3.7847,3.784,3.7836,3.7826,3.782,3.7828,3.7829,3.7822,3.782,3.7808,3.7808,3.7807,3.7807,0,3.8084,3.8063,3.8055,3.8028,3.8022,3.8021,3.7997,3.7993,3.7976,3.7967,3.7964,3.7936,3.7923,3.7898,3.7877,3.7864,3.7862,3.7853,3.787,3.7866,3.7876,3.7876,3.7911,3.7915,3.7869,3.787,3.787,0,3.81,3.8098,3.8072,3.8067,3.8055,3.8046,3.8038,3.8013,3.8005,3.7983,3.7981,3.7967,3.7954,3.7935,3.7912,3.7897,3.7887,3.7901,3.7884,3.7893,3.7888,3.7888,3.7888,3.7904,3.7905,3.7905,3.7906,0,3.813,3.812,3.811,3.8096,3.8087,3.8075,3.8061,3.8058,3.8029,3.8021,3.8009,3.8,3.798,3.7966,3.7948,3.7934,3.7915,3.7911,3.7913,3.792,3.793,3.7925,3.788,3.791,3.791,3.7909,3.7909,3.7909,3.8156,3.8154,3.8136,3.8126,3.8113,3.8102,3.8097,3.808,3.807,3.8053,3.8039,3.8028,3.8009,3.7983,3.7971,3.7962,3.7952,3.7954,3.7954,3.7955,3.7959,3.7932,3.7958,3.7958,3.7958,3.7958,3.7958,0,3.8186,3.8174,3.8165,3.8147,3.8139,3.8125,3.8109,3.8103,3.8095,3.8079,3.8068,3.8055,3.8042,3.802,3.8005,3.8002,3.7993,3.7999,3.7999,3.7996,3.7967,3.7968,3.8007,3.8007,3.8007,3.8007,3.8007,3.8007,3.82,3.8196,3.8185,3.8175,3.8162,3.8153,3.8146,3.8135,3.8123,3.811,3.81,3.8086,3.8068,3.8052,3.804,3.8034,3.8029,3.8038,3.8029,3.8003,3.7998,3.7994,3.7994,3.8038,3.8038,3.8059,3.8059,3.8059]}]]